CPA1690 YMML-YSSY

Flight info

Callsign CPA1690
Flight time 1h 2m
Altitude 35000
Route DOSEL2/34 DOSEL Y59 RIVET RIVET4/34L
Aircraft B748/H-VGDW/C

Departure

Time 2026-05-04 08:35
Airport Melbourne Airport (YMML)

Arrival

Time 2026-05-04 09:37
Airport Sydney Kingsford Smith International Airport (YSSY)
Time Latitude Longitude Altitude Speed Heading
2026-05-04 08:08 -37.67748 144.84471 445 ft 0 kts 82°
2026-05-04 08:24 -37.67730 144.84380 445 ft 0 kts 168°
2026-05-04 08:27 -37.68359 144.84454 445 ft 14 kts 201°
2026-05-04 08:28 -37.68443 144.84393 445 ft 13 kts 211°
2026-05-04 08:28 -37.68515 144.84326 445 ft 4 kts 228°
2026-05-04 08:28 -37.68527 144.84309 445 ft 3 kts 230°
2026-05-04 08:28 -37.68541 144.84282 445 ft 2 kts 244°
2026-05-04 08:29 -37.68544 144.84273 445 ft 0 kts 250°
2026-05-04 08:31 -37.68488 144.84090 445 ft 0 kts 352°
2026-05-04 08:33 -37.67960 144.83990 445 ft 116 kts 352°
2026-05-04 08:33 -37.66874 144.83778 504 ft 196 kts 351°
2026-05-04 08:35 -37.55476 144.84526 4983 ft 258 kts 20°
2026-05-04 08:35 -37.53865 144.85483 5104 ft 255 kts 22°
2026-05-04 08:35 -37.52261 144.86458 5770 ft 260 kts 21°
2026-05-04 08:35 -37.50611 144.87457 6403 ft 265 kts 21°
2026-05-04 08:37 -37.40816 144.96722 10191 ft 324 kts 50°
2026-05-04 08:37 -37.39499 144.99051 10953 ft 331 kts 51°
2026-05-04 08:37 -37.38145 145.01450 11713 ft 338 kts 51°
2026-05-04 08:38 -37.36787 145.03853 12461 ft 344 kts 51°
2026-05-04 08:38 -37.35405 145.06300 13210 ft 349 kts 51°
2026-05-04 08:38 -37.33976 145.08827 13974 ft 357 kts 50°
2026-05-04 08:40 -37.22619 145.28806 19177 ft 430 kts 49°
2026-05-04 08:40 -37.20878 145.31856 19930 ft 436 kts 50°
2026-05-04 08:40 -37.19101 145.34970 20691 ft 442 kts 49°
2026-05-04 08:41 -37.17323 145.38086 21442 ft 447 kts 50°
2026-05-04 08:41 -37.15595 145.41338 22199 ft 455 kts 52°
2026-05-04 08:41 -37.13868 145.44693 22962 ft 461 kts 52°
2026-05-04 08:41 -37.12106 145.48123 23734 ft 472 kts 52°
2026-05-04 08:42 -37.10328 145.51588 24498 ft 482 kts 52°
2026-05-04 08:42 -37.08504 145.55139 25264 ft 492 kts 52°
2026-05-04 08:42 -37.06639 145.58769 26033 ft 502 kts 52°
2026-05-04 08:42 -37.04726 145.62488 26806 ft 512 kts 52°
2026-05-04 08:43 -37.02790 145.66251 27569 ft 521 kts 51°
2026-05-04 08:43 -37.00841 145.70032 28306 ft 529 kts 51°
2026-05-04 08:43 -36.98816 145.73955 29059 ft 537 kts 51°
2026-05-04 08:43 -36.96782 145.77892 29805 ft 545 kts 51°
2026-05-04 08:44 -36.94724 145.81871 30549 ft 552 kts 51°
2026-05-04 08:44 -36.92659 145.85861 31284 ft 556 kts 51°
2026-05-04 08:46 -36.77126 146.12982 34911 ft 544 kts 45°
2026-05-04 08:46 -36.72548 146.20399 34899 ft 524 kts 45°
2026-05-04 08:46 -36.70399 146.23881 34898 ft 502 kts 44°
2026-05-04 08:47 -36.68308 146.27261 34898 ft 484 kts 44°
2026-05-04 08:47 -36.64137 146.33952 34922 ft 496 kts 44°
2026-05-04 08:48 -36.59919 146.40736 34919 ft 497 kts 44°
2026-05-04 08:48 -36.55682 146.47537 34920 ft 497 kts 44°
2026-05-04 08:48 -36.53546 146.50952 34936 ft 513 kts 44°
2026-05-04 08:49 -36.51283 146.54564 34936 ft 532 kts 45°
2026-05-04 08:50 -36.37153 146.77115 34907 ft 555 kts 44°
2026-05-04 08:50 -36.34800 146.80853 34907 ft 555 kts 44°
2026-05-04 08:51 -36.30040 146.88402 34914 ft 555 kts 44°
2026-05-04 08:51 -36.25319 146.95871 34976 ft 557 kts 45°
2026-05-04 08:52 -36.20509 147.03464 35023 ft 559 kts 45°
2026-05-04 08:52 -36.15789 147.11121 35045 ft 562 kts 47°
2026-05-04 08:54 -35.97307 147.41685 35053 ft 551 kts 46°
2026-05-04 08:55 -35.92724 147.49223 35053 ft 551 kts 47°
2026-05-04 08:55 -35.88126 147.56769 35057 ft 551 kts 47°
2026-05-04 08:57 -35.72063 147.82993 34246 ft 544 kts 46°
2026-05-04 09:01 -35.39888 148.34944 33052 ft 551 kts 46°
2026-05-04 09:01 -35.35253 148.42364 33053 ft 551 kts 46°
2026-05-04 09:02 -35.30578 148.49834 33054 ft 551 kts 46°
2026-05-04 09:02 -35.25925 148.57250 33055 ft 551 kts 46°
2026-05-04 09:03 -35.21281 148.64642 33056 ft 551 kts 46°
2026-05-04 09:03 -35.16639 148.72029 33025 ft 531 kts 46°
2026-05-04 09:03 -35.14466 148.75488 33024 ft 508 kts 45°
2026-05-04 09:04 -35.12348 148.78847 33029 ft 494 kts 45°
2026-05-04 09:04 -35.08086 148.85562 33047 ft 505 kts 45°
2026-05-04 09:05 -35.03789 148.92342 33045 ft 507 kts 46°
2026-05-04 09:05 -34.99482 148.99124 33046 ft 509 kts 46°
2026-05-04 09:06 -34.95145 149.05942 33048 ft 509 kts 47°
2026-05-04 09:07 -34.79977 149.29683 32642 ft 511 kts 47°
2026-05-04 09:08 -34.77835 149.33026 32158 ft 505 kts 47°
2026-05-04 09:08 -34.75687 149.36380 31657 ft 498 kts 49°
2026-05-04 09:08 -34.73787 149.39896 31169 ft 496 kts 56°
2026-05-04 09:08 -34.72075 149.43556 30671 ft 493 kts 57°
2026-05-04 09:09 -34.70448 149.47188 30181 ft 490 kts 58°
2026-05-04 09:09 -34.68846 149.50821 29689 ft 487 kts 59°
2026-05-04 09:09 -34.67279 149.54396 29203 ft 482 kts 59°
2026-05-04 09:09 -34.65707 149.57989 28710 ft 478 kts 59°
2026-05-04 09:10 -34.64150 149.61546 28219 ft 474 kts 59°
2026-05-04 09:10 -34.62617 149.65048 27731 ft 470 kts 59°
2026-05-04 09:10 -34.61093 149.68529 27222 ft 465 kts 59°
2026-05-04 09:10 -34.59585 149.71967 26714 ft 461 kts 58°
2026-05-04 09:11 -34.58083 149.75374 26206 ft 457 kts 59°
2026-05-04 09:11 -34.56596 149.78749 25699 ft 452 kts 59°
2026-05-04 09:11 -34.55146 149.82057 25207 ft 448 kts 59°
2026-05-04 09:11 -34.53687 149.85382 25044 ft 443 kts 59°
2026-05-04 09:12 -34.52245 149.88652 24519 ft 445 kts 59°
2026-05-04 09:12 -34.50782 149.91969 24015 ft 442 kts 59°
2026-05-04 09:14 -34.41066 150.13892 23048 ft 407 kts 59°
2026-05-04 09:14 -34.39736 150.16887 23031 ft 397 kts 59°
2026-05-04 09:14 -34.38441 150.19795 23039 ft 397 kts 59°
2026-05-04 09:14 -34.37135 150.22728 23040 ft 397 kts 59°
2026-05-04 09:15 -34.35820 150.25678 23040 ft 397 kts 59°
2026-05-04 09:15 -34.34505 150.28626 23038 ft 397 kts 59°
2026-05-04 09:15 -34.33176 150.31599 23044 ft 408 kts 59°
2026-05-04 09:15 -34.31788 150.34698 23050 ft 427 kts 59°
2026-05-04 09:17 -34.21030 150.58740 23034 ft 399 kts 60°
2026-05-04 09:18 -34.19709 150.61693 23031 ft 399 kts 60°
2026-05-04 09:18 -34.18401 150.64610 23028 ft 399 kts 59°
2026-05-04 09:18 -34.17068 150.67581 23014 ft 399 kts 59°
2026-05-04 09:18 -34.15751 150.70515 23012 ft 399 kts 59°
2026-05-04 09:19 -34.14432 150.73447 23009 ft 399 kts 59°
2026-05-04 09:19 -34.13108 150.76384 23009 ft 399 kts 59°
2026-05-04 09:19 -34.11771 150.79346 22408 ft 408 kts 59°
2026-05-04 09:19 -34.10424 150.82335 21677 ft 409 kts 59°
2026-05-04 09:20 -34.09070 150.85347 20934 ft 411 kts 60°
2026-05-04 09:20 -34.07687 150.88419 19955 ft 418 kts 60°
2026-05-04 09:20 -34.06364 150.91540 18966 ft 425 kts 68°
2026-05-04 09:20 -34.05607 150.94998 17986 ft 428 kts 83°
2026-05-04 09:21 -34.05538 150.98557 16986 ft 422 kts 98°
2026-05-04 09:21 -34.06065 151.01959 16010 ft 413 kts 105°
2026-05-04 09:21 -34.06984 151.05190 15003 ft 401 kts 120°
2026-05-04 09:21 -34.08482 151.07912 14044 ft 386 kts 136°
2026-05-04 09:22 -34.10457 151.09958 12991 ft 377 kts 149°
2026-05-04 09:22 -34.12731 151.11363 12009 ft 363 kts 164°
2026-05-04 09:22 -34.15134 151.12234 11008 ft 357 kts 167°
2026-05-04 09:22 -34.17483 151.13026 10101 ft 350 kts 168°
2026-05-04 09:23 -34.19783 151.13802 9608 ft 333 kts 168°
2026-05-04 09:23 -34.21947 151.14533 9098 ft 320 kts 168°
2026-05-04 09:23 -34.24069 151.15250 8579 ft 308 kts 168°
2026-05-04 09:23 -34.26081 151.15927 8071 ft 299 kts 168°
2026-05-04 09:25 -34.38319 151.21030 5873 ft 245 kts 124°
2026-05-04 09:25 -34.39042 151.22887 5699 ft 247 kts 100°
2026-05-04 09:26 -34.39103 151.24931 5500 ft 241 kts 75°
2026-05-04 09:26 -34.38489 151.26781 5302 ft 232 kts 49°
2026-05-04 09:26 -34.37342 151.28075 5122 ft 224 kts 27°
2026-05-04 09:26 -34.35984 151.28970 5031 ft 221 kts 23°
2026-05-04 09:27 -34.34609 151.29803 5004 ft 212 kts 20°
2026-05-04 09:27 -34.33250 151.30370 5025 ft 208 kts
2026-05-04 09:27 -34.31824 151.30484 5031 ft 204 kts 346°
2026-05-04 09:27 -34.30518 151.29820 5043 ft 203 kts 326°
2026-05-04 09:28 -34.29365 151.28827 5021 ft 203 kts 323°
2026-05-04 09:28 -34.28247 151.27808 5020 ft 203 kts 323°
2026-05-04 09:28 -34.27119 151.26773 5020 ft 203 kts 323°
2026-05-04 09:28 -34.25917 151.25861 5014 ft 201 kts 341°
2026-05-04 09:29 -34.24603 151.25450 5037 ft 193 kts 346°
2026-05-04 09:29 -34.23298 151.25099 5019 ft 193 kts 345°
2026-05-04 09:29 -34.21966 151.24734 4611 ft 199 kts 346°
2026-05-04 09:29 -34.20631 151.24373 4118 ft 198 kts 346°
2026-05-04 09:30 -34.19293 151.24014 3615 ft 197 kts 347°
2026-05-04 09:30 -34.17957 151.23659 3125 ft 195 kts 347°
2026-05-04 09:30 -34.16713 151.23332 3007 ft 173 kts 348°
2026-05-04 09:30 -34.15573 151.23035 3003 ft 164 kts 348°
2026-05-04 09:31 -34.14460 151.22745 3020 ft 167 kts 348°
2026-05-04 09:31 -34.13304 151.22443 3023 ft 167 kts 348°
2026-05-04 09:31 -34.12213 151.22159 2984 ft 159 kts 348°
2026-05-04 09:31 -34.11130 151.21881 3040 ft 157 kts 348°
2026-05-04 09:32 -34.10074 151.21609 2791 ft 151 kts 348°
2026-05-04 09:32 -34.09081 151.21352 2557 ft 144 kts 349°
2026-05-04 09:34 -34.02189 151.19557 1198 ft 145 kts 350°
2026-05-04 09:34 -34.01210 151.19304 1003 ft 145 kts 350°
2026-05-04 09:34 -34.00224 151.19047 806 ft 145 kts 350°
2026-05-04 09:34 -33.99236 151.18791 607 ft 145 kts 350°
2026-05-04 09:35 -33.98250 151.18536 416 ft 145 kts 350°
2026-05-04 09:35 -33.97272 151.18283 226 ft 144 kts 351°
2026-05-04 09:35 -33.96294 151.18028 34 ft 141 kts 351°
2026-05-04 09:35 -33.95472 151.17819 19 ft 88 kts 349°
2026-05-04 09:37 -33.94406 151.17439 25 ft 0 kts 318°
2026-05-04 09:37 -33.94405 151.17439 25 ft 0 kts 318°
2026-05-04 09:38 -33.94391 151.17424 25 ft 3 kts 318°
2026-05-04 09:38 -33.94369 151.17400 25 ft 4 kts 317°
2026-05-04 09:38 -33.94338 151.17364 25 ft 9 kts 317°
2026-05-04 09:38 -33.94266 151.17305 25 ft 16 kts 338°
2026-05-04 09:39 -33.94158 151.17268 23 ft 18 kts 346°
2026-05-04 09:39 -33.94031 151.17236 23 ft 19 kts 348°
2026-05-04 09:39 -33.93902 151.17207 22 ft 23 kts 350°
2026-05-04 09:39 -33.93785 151.17175 22 ft 16 kts 347°
2026-05-04 09:40 -33.93721 151.17105 25 ft 11 kts 269°
2026-05-04 09:40 -33.93767 151.17040 27 ft 9 kts 236°
2026-05-04 09:40 -33.93786 151.16991 29 ft 0 kts 250°
2026-05-04 09:40 -33.93793 151.16966 29 ft 4 kts 253°
2026-05-04 09:41 -33.93795 151.16957 30 ft 0 kts 252°
2026-05-04 09:42 -33.93797 151.16951 30 ft 0 kts 252°